Regional Weather Roundup
Issued by NWS

Home | Current Version | Previous Version | Graphics & Text | Print | Product List | Glossary On
Versions: 1 2 3 4 5 6 7 8 9 10 11 12 13 14 15 16 17 18 19 20 21 22 23 24 25 26 27 28 29 30 31 32 33 34 35 36 37 38 39 40 41 42 43 44 45 46 47 48 49 50
000
ASUS45 KCYS 180310
RWRWY

WYOMING REGIONAL WEATHER ROUNDUP
NATIONAL WEATHER SERVICE CHEYENNE WY
900 PM MDT WED SEP 17 2014

NOTE:  "FAIR" INDICATES FEW OR NO CLOUDS BELOW 12,000 FEET
WITH NO SIGNIFICANT WEATHER AND/OR OBSTRUCTIONS TO VISIBILITY.

WYZ001-180400-
YELLOWSTONE NATIONAL PARK

CITY           SKY/WX    TMP DP  RH WIND       PRES   REMARKS
LK YELLOWSTONE   N/A     48  41  76 W3        30.22R
W YELLOWSTONE  NOT AVBL

$$
WYZ002>013-054>058-071-098>099-180400-
NORTHERN WYOMING

CITY           SKY/WX    TMP DP  RH WIND       PRES   REMARKS
JACKSON        PTCLDY    63  39  42 E6        30.08R
CODY             N/A    N/A N/A N/A MISG        N/A
GREYBULL       MOCLDY    72  45  37 E7        29.94S
WORLAND        PTCLDY    69  46  43 N6        29.96R
SHERIDAN       CLOUDY    74  43  32 SW14      29.93S
BUFFALO        LGT RAIN  70  46  42 NE9G29    30.02R
GILLETTE       PTCLDY    57  49  74 S6        29.96R
HULETT         FAIR      64  48  55 MISG      29.98
NEWCASTLE      FAIR      70  37  30 E12       29.97

$$
WYZ014>020-022>026-101>103-180400-
CENTRAL WYOMING

CITY           SKY/WX    TMP DP  RH WIND       PRES   REMARKS
BIG PINEY      CLEAR     54  45  71 N6        30.15R
PINEDALE       MOCLDY    57  37  47 CALM      30.17R
DUBOIS         FAIR      59  37  44 NW5       30.15R
LANDER         PTCLDY    69  38  32 W6        30.03R
RIVERTON       PTCLDY    69  40  34 E8        30.03R
CASPER         PTCLDY    63  37  38 NW9       30.03R
DOUGLAS        CLEAR     63  42  46 CALM      30.02R

$$
WYZ021-027>030-104>119-180400-
SOUTHERN WYOMING

CITY           SKY/WX    TMP DP  RH WIND       PRES   REMARKS
EVANSTON       PTCLDY    63  41  44 SE10      30.15R
KEMMERER       CLEAR     64  36  34 S7        30.17S
FORT BRIDGER   FAIR      66  39  37 S12       30.18R
ROCK SPRINGS   NOT AVBL
DIXON          FAIR      59  43  54 NE5       30.17R
RAWLINS        PTCLDY    63  36  36 CALM      30.15R
SARATOGA       FAIR      59  41  51 CALM      30.18R
LARAMIE        CLEAR     56  41  57 S7        30.19R
CHEYENNE       CLEAR     60  43  53 W6        30.12R
TORRINGTON     CLEAR     63  46  54 E8        29.96R
PINE BLUFFS    FAIR      57  46  67 W6        30.05S

$$


USA.gov is the U.S. government's official web portal to all federal, state and local government web resources and services.